Temperature
12 12 12 12 12 12 12 12 11 11 11 11 11 10 10 10 10 10 10 9 9 9 9 9 9 9 9 9 9 9 9 9 9 8 8 8 8 8 8 8 8 8 8
12 12 12 12 12 12 11 11 11 11 11 11 10 10 10 10 10 9 9 9 9 9 9 9 9 9 9 9 9 8 8 8 8 8 8 8 8 8 8 8 8 8 8
12 12 12 11 11 11 11 11 11 11 11 10 10 10 10 10 9 9 9 9 9 9 9 9 9 8 8 8 8 8 8 8 8 8 7 7 7 7 7 8 7 7 7
12 11 11 11 11 11 11 11 11 11 11 10 10 10 10 9 9 9 9 9 9 9 9 8 8 8 8 8 8 8 8 8 7 7 7 7 7 7 7 7 7 7 7
11 11 11 11 11 11 11 11 10 10 10 10 10 10 9 9 9 9 9 8 8 8 8 8 8 8 8 8 8 8 7 7 7 7 7 7 7 7 6 6 7 7 7
11 11 11 11 11 10 10 10 10 10 10 10 10 9 9 9 9 9 8 8 8 8 8 8 8 8 8 8 7 7 7 7 7 7 6 6 6 6 6 6 6 6 6
11 11 10 10 10 10 10 10 10 10 9 9 9 9 9 9 9 9 8 8 8 8 8 8 8 7 7 7 7 7 7 7 6 6 6 6 6 6 6 6 6 6 6
10 10 10 10 10 10 10 10 9 9 9 9 9 9 9 9 8 8 8 8 8 8 7 7 7 7 7 7 7 7 6 6 6 6 6 6 6 6 6 6 5 5 5
10 10 10 10 10 9 9 9 9 9 9 9 9 8 8 8 8 8 8 8 8 8 7 7 7 7 7 7 6 6 6 6 6 6 6 6 6 5 5 5 5 5 5
9 9 9 9 9 9 9 9 9 8 8 8 8 8 8 8 8 8 8 7 7 7 7 7 7 7 6 6 6 6 6 6 6 6 6 6 5 5 5 5 5 5 5
9 9 9 9 9 9 9 9 8 8 8 8 8 8 8 8 7 7 7 7 7 7 7 7 7 6 6 6 6 6 6 6 6 5 5 5 5 5 5 5 5 5 5
8 8 8 9 8 8 8 8 8 8 8 7 7 7 7 7 7 7 7 7 7 6 6 6 6 6 6 6 6 6 5 5 5 5 5 5 5 5 5 5 5 5 4
8 8 8 8 8 8 8 8 8 7 7 7 7 7 7 7 7 7 7 6 6 6 6 6 6 6 6 5 5 5 5 5 5 5 5 5 5 5 4 4 4 4 4
8 7 7 8 8 8 7 7 7 7 7 7 7 7 7 7 7 7 6 6 6 6 6 6 6 6 5 5 5 5 5 5 5 4 4 4 4 4 4 4 4 4 4
7 7 7 7 7 7 7 7 7 7 7 7 7 7 6 6 6 6 6 6 6 6 5 5 5 5 5 5 5 5 4 4 4 4 4 4 4 4 4 4 4 4 4
7 6 6 7 7 7 7 7 7 6 6 6 6 6 6 6 6 6 6 6 5 5 5 5 5 5 5 5 5 4 4 4 4 4 4 4 4 4 4 4 4 4 4
6 6 6 6 6 6 6 6 6 6 6 6 6 6 6 6 6 6 5 5 5 5 5 5 5 5 5 5 4 4 4 4 4 4 4 4 4 3 3 3 3 3 3
6 6 6 6 6 6 6 6 5 5 6 6 5 5 5 5 5 5 5 5 5 5 5 5 5 5 4 4 4 4 4 4 4 3 3 3 3 3 3 3 3 3 3
5 5 5 5 5 5 5 5 5 5 5 5 5 5 5 5 5 5 4 4 4 4 4 4 4 4 4 4 4 4 4 3 3 3 3 3 3 3 3 3 3 3 3
5 5 5 5 5 5 5 5 4 4 5 5 5 5 4 4 4 4 4 4 4 4 4 4 4 4 4 4 4 3 3 3 3 3 3 3 3 3 3 3 3 3 3
4 4 4 4 4 4 4 4 4 4 4 4 4 4 4 4 4 4 4 4 4 4 4 4 4 4 3 3 3 3 3 3 3 3 3 3 3 3 3 2 2 2 2
4 4 4 4 4 4 4 3 3 3 3 3 3 4 4 4 4 4 4 4 4 4 4 3 3 3 3 3 3 3 3 3 3 3 3 2 2 2 2 2 2 2 2
4 3 3 3 3 3 3 3 3 3 3 3 3 3 3 3 3 3 3 3 3 3 3 3 3 3 3 3 3 3 3 3 2 2 2 2 2 2 2 2 2 2 1
3 3 3 3 3 3 3 3 3 3 2 2 2 2 2 3 3 3 3 3 3 3 3 3 3 3 3 3 3 2 2 2 2 2 2 2 2 2 2 2 1 1 1
3 3 3 3 2 2 2 2 2 2 2 2 2 2 2 2 2 2 2 2 2 2 2 2 2 2 2 2 2 2 2 2 2 2 1 1 1 1 1 1 1 1 1
3 2 2 2 2 2 2 2 2 2 1 1 2 2 2 2 2 2 2 2 2 2 2 2 2 2 2 2 2 2 2 2 1 1 1 1 1 1 1 1 1 1 0
Wind_Speed
2 2 2 2 2 3 3 3 3 3 3 4 3 3 2 2 2 2 1 1 2 1 1 1 1 1 1 1 1 1 0 1 1 2 2 2 2 2 2 3 3 2 1
3 3 2 2 2 3 3 2 2 3 3 4 3 3 3 2 2 2 2 1 1 1 0 0 1 1 1 0 1 0 0 1 2 2 2 2 2 2 2 2 3 3 2
3 3 2 2 2 3 3 3 2 3 3 3 3 3 3 2 2 2 2 2 2 2 2 1 1 1 0 0 0 0 1 0 1 1 2 2 1 1 2 2 3 2 3
3 3 3 2 2 3 3 3 3 3 3 3 3 3 3 3 3 3 2 2 2 2 2 2 2 2 2 2 1 1 1 0 0 1 1 1 1 2 0 1 2 2 2
4 4 3 2 2 2 2 2 2 3 3 3 3 3 3 3 3 3 3 2 2 2 2 2 3 2 2 2 1 2 1 1 1 1 1 1 1 1 2 1 2 3 3
4 4 3 2 2 2 2 2 2 2 3 3 3 4 3 3 3 3 3 3 3 2 2 2 2 1 2 3 3 3 2 2 2 2 2 3 3 3 2 1 1 1 2
4 3 3 3 2 3 3 3 3 2 2 2 3 3 3 4 4 3 3 3 3 3 3 2 2 2 2 2 3 3 3 3 4 3 3 5 4 4 3 2 2 2 3
3 3 3 3 3 2 3 3 3 3 3 3 3 3 3 4 4 4 3 2 2 3 3 3 3 3 3 2 1 1 2 3 4 3 5 6 6 5 5 4 4 2 2
2 3 3 4 3 3 3 4 3 3 3 3 3 3 3 4 5 4 3 2 2 3 3 3 3 4 4 2 1 2 3 4 4 5 5 5 5 4 4 2 1 1 2
3 3 3 3 4 4 5 5 3 3 4 3 3 3 3 4 4 5 4 3 3 2 2 3 5 4 4 3 2 2 3 4 3 3 3 3 2 3 4 4 4 3 2
2 2 2 2 3 4 4 4 3 3 3 2 2 2 3 3 4 4 4 3 4 3 3 3 4 5 5 4 3 3 5 3 2 2 2 1 2 2 3 3 4 4 4
1 1 2 2 3 2 3 3 3 4 4 3 3 2 2 3 4 4 5 4 4 4 4 4 4 5 5 4 4 4 3 1 1 1 1 2 2 3 3 3 4 4 5
1 1 2 2 2 2 3 3 3 4 4 4 4 4 3 3 4 5 5 5 5 4 4 6 5 4 4 4 5 4 2 1 1 2 3 4 4 4 3 2 2 2 3
1 2 2 2 2 2 2 3 4 4 5 4 5 5 4 3 3 3 4 4 5 4 3 4 4 4 3 3 3 2 2 2 2 3 3 3 2 2 2 2 2 1 1
2 2 2 2 2 2 2 3 4 5 6 6 6 6 5 5 6 6 4 4 4 4 2 1 1 1 1 2 2 2 1 1 2 2 2 2 2 2 2 2 2 2 2
2 2 2 2 2 2 2 2 3 3 5 6 6 6 6 7 7 6 6 5 5 3 2 2 2 3 3 3 3 3 2 3 3 3 2 2 3 3 3 2 1 2 3
3 3 2 2 2 2 2 3 3 3 3 4 6 6 6 6 6 6 5 4 4 4 2 3 3 4 4 4 4 3 4 4 3 3 3 3 3 3 2 2 2 3 3
3 3 3 3 3 3 3 3 3 3 3 3 4 6 6 6 6 5 4 3 2 3 3 4 4 4 3 3 4 3 3 3 3 3 3 3 3 2 2 2 3 3 3
2 2 2 2 2 2 2 2 2 3 3 3 2 3 5 5 5 4 4 3 4 4 4 4 4 4 4 4 4 3 4 4 4 3 3 4 3 3 3 3 3 4 3
2 4 3 2 2 2 2 2 2 3 3 3 3 3 2 2 2 3 3 3 4 4 4 4 4 4 4 4 3 3 3 3 4 4 4 4 3 3 3 4 3 3 3
2 3 3 2 2 2 2 2 3 3 3 3 4 4 4 3 4 5 4 4 5 5 5 4 4 4 4 4 3 4 4 4 4 3 3 4 3 3 3 3 3 3 2
2 2 2 2 2 2 2 2 2 3 3 3 3 3 4 3 3 3 4 4 5 4 4 4 4 4 4 4 4 4 4 4 4 4 3 3 3 3 3 2 2 3 3
2 2 2 2 2 2 2 2 2 3 3 2 3 3 2 3 3 3 4 3 3 3 3 3 3 4 5 5 6 5 5 5 4 4 4 4 3 3 3 3 3 3 3
2 2 2 2 2 2 2 2 2 3 3 2 2 3 3 3 3 3 3 2 2 2 2 3 4 5 5 5 5 6 6 6 6 5 5 4 3 3 3 3 3 3 3
2 2 2 2 2 3 3 3 3 3 3 3 3 3 3 3 3 3 2 2 2 2 2 3 4 5 5 6 6 6 6 6 5 5 5 4 4 3 3 3 3 3 3
2 2 2 2 2 3 3 3 3 3 3 3 3 3 3 3 3 3 2 2 2 2 3 3 4 5 6 6 6 6 6 6 6 6 5 3 3 3 3 3 3 3 3
Wind_Direction
169 164 153 167 162 152 153 173 178 167 157 159 161 154 144 134 124 115 120 105 98 58 45 71 28 57 70 35 61 84 98 143 205 287 299 312 334 331 337 357 347 344 338
165 148 156 166 155 156 173 187 169 167 164 161 155 154 161 157 143 147 165 149 154 165 276 45 318 23 53 18 69 105 203 182 173 261 304 315 305 294 307 318 336 318 296
154 149 139 143 161 179 186 188 172 167 171 162 163 169 176 172 164 179 178 184 197 204 203 200 227 176 285 298 326 276 249 238 168 196 280 288 288 304 328 327 326 314 302
156 155 165 182 186 190 186 182 179 173 172 171 174 175 174 176 180 180 176 189 209 220 216 211 212 203 213 221 241 242 220 169 175 191 280 283 281 285 319 317 316 310 305
163 168 184 190 183 172 167 176 177 176 178 176 173 175 175 185 194 186 189 185 189 215 236 235 226 221 233 234 243 226 204 197 203 245 279 279 283 269 257 263 286 300 295
181 183 181 169 163 184 188 175 162 175 183 178 186 189 197 215 211 197 181 187 191 196 225 256 259 258 269 282 267 248 224 210 217 225 256 243 246 241 244 253 272 312 296
192 190 180 180 189 203 192 173 178 191 183 189 206 201 212 228 216 194 184 179 195 205 209 224 255 276 294 271 280 288 269 244 223 215 231 234 230 226 213 230 236 242 259
202 201 195 189 198 210 190 188 199 201 199 205 212 213 214 235 225 208 189 175 205 223 218 210 219 249 257 256 252 282 272 264 252 241 230 232 227 214 204 211 223 262 291
214 224 219 205 201 207 204 199 199 199 212 216 210 204 213 240 235 219 188 181 208 233 239 230 222 233 254 262 223 249 272 282 283 273 257 249 245 232 199 165 188 230 279
231 237 239 219 207 209 211 202 197 197 209 212 216 214 215 238 241 224 196 187 207 234 251 249 244 244 251 242 204 220 250 266 278 303 302 296 276 239 219 194 194 210 242
249 246 253 231 218 213 207 204 199 192 189 199 215 232 230 233 238 229 215 195 204 222 237 248 254 256 250 242 233 229 250 259 250 270 270 273 278 256 241 224 212 206 216
259 245 255 251 240 221 195 202 196 184 189 206 214 240 249 249 244 245 240 230 223 211 231 240 251 255 249 250 249 258 264 272 232 277 284 266 256 256 249 243 239 234 229
234 251 259 261 258 224 200 201 197 194 202 217 216 227 248 253 258 253 248 243 233 225 235 249 251 246 244 254 261 257 242 208 211 249 257 256 253 251 251 251 258 261 267
231 255 259 259 263 245 219 205 205 208 213 220 224 230 239 243 246 242 239 246 243 238 244 251 253 247 245 259 271 261 235 220 218 232 250 263 264 256 246 235 241 249 278
235 244 251 257 248 241 239 229 225 225 218 219 221 218 220 234 240 238 230 231 229 230 218 228 262 265 257 275 279 272 260 260 247 239 240 262 269 258 257 238 227 243 243
234 250 250 255 254 247 246 273 273 258 263 251 236 228 234 238 243 245 244 246 246 219 174 200 223 227 233 239 247 264 256 246 245 238 236 237 247 250 255 259 241 234 242
228 244 247 242 239 240 246 243 270 297 283 258 243 240 238 239 243 244 239 236 226 187 191 219 227 229 238 241 242 245 246 247 245 237 234 235 242 249 245 244 242 239 247
233 244 244 241 237 237 239 243 241 243 266 275 259 244 240 237 238 238 222 187 215 213 218 225 233 235 240 245 246 248 249 247 244 242 240 237 235 237 245 243 237 238 244
236 245 245 249 248 243 246 249 250 249 249 259 275 263 243 236 232 227 192 197 215 225 232 238 238 236 240 243 245 245 242 235 234 237 241 241 235 232 243 245 238 245 246
244 260 259 248 250 255 255 257 257 256 255 248 246 245 232 215 225 232 222 224 227 232 232 236 242 243 240 240 241 245 249 245 237 238 241 241 237 229 233 236 234 234 239
239 254 259 259 254 254 255 255 254 257 260 262 258 251 235 219 226 229 224 226 230 233 233 233 234 235 237 236 236 238 245 249 245 242 242 237 231 229 230 228 234 236 241
227 238 243 250 254 257 264 259 259 259 261 269 284 268 243 235 238 239 235 237 237 233 232 227 231 232 232 230 230 234 241 249 249 245 246 245 237 230 226 228 230 233 233
222 232 245 250 252 263 270 269 263 263 264 268 278 281 255 240 246 243 242 243 240 243 242 235 239 248 250 241 235 230 231 238 243 237 235 237 235 232 223 221 223 226 233
222 228 236 245 255 255 256 263 262 264 267 268 272 278 273 261 256 258 257 253 249 250 245 242 246 254 259 255 247 241 239 241 239 236 232 228 229 235 228 217 222 228 233
224 231 235 239 243 252 262 267 264 262 262 263 264 270 276 271 268 269 262 258 253 255 263 258 256 256 259 259 255 249 247 247 247 244 237 227 224 226 226 221 224 226 229
231 234 241 246 249 252 256 260 262 263 265 268 266 263 262 261 263 265 268 264 258 260 266 265 269 269 269 267 261 256 251 252 256 258 242 223 218 222 219 224 220 219 224
Height
1518 1519 1518 1518 1518 1518 1518 1518 1519 1519 1519 1519 1519 1519 1519 1519 1519 1519 1518 1518 1518 1518 1518 1518 1517 1517 1517 1516 1516 1516 1515 1515 1514 1513 1513 1512 1511 1511 1510 1509 1509 1508 1507
1516 1516 1516 1516 1516 1516 1516 1517 1517 1517 1517 1517 1517 1517 1517 1517 1517 1517 1517 1517 1517 1516 1516 1516 1516 1516 1515 1515 1514 1514 1513 1513 1512 1511 1510 1509 1509 1508 1508 1507 1507 1506 1506
1514 1514 1514 1514 1514 1514 1514 1514 1515 1515 1515 1515 1516 1516 1516 1516 1516 1515 1515 1515 1515 1515 1514 1514 1514 1514 1513 1513 1512 1512 1511 1511 1510 1509 1507 1507 1506 1506 1505 1505 1504 1504 1504
1511 1511 1511 1511 1511 1511 1512 1512 1512 1513 1513 1513 1514 1514 1514 1513 1514 1513 1513 1513 1513 1513 1513 1512 1512 1512 1511 1511 1510 1509 1509 1508 1507 1506 1505 1504 1504 1503 1503 1502 1501 1501 1501
1509 1509 1509 1509 1509 1509 1509 1510 1510 1511 1511 1511 1511 1511 1511 1511 1511 1511 1511 1511 1511 1510 1510 1510 1510 1509 1509 1508 1508 1507 1506 1505 1504 1503 1502 1501 1500 1500 1500 1499 1499 1498 1499
1506 1506 1506 1506 1506 1506 1507 1507 1508 1508 1508 1509 1509 1509 1509 1509 1509 1509 1509 1508 1508 1508 1507 1507 1507 1507 1506 1506 1505 1504 1504 1503 1501 1500 1500 1499 1498 1497 1497 1497 1496 1496 1495
1502 1503 1503 1503 1503 1503 1504 1504 1504 1505 1505 1506 1506 1506 1506 1506 1507 1507 1506 1506 1505 1505 1504 1504 1504 1504 1503 1502 1502 1501 1500 1500 1499 1498 1497 1496 1495 1495 1494 1494 1494 1493 1493
1499 1499 1500 1500 1500 1500 1501 1501 1501 1502 1502 1503 1503 1503 1503 1504 1504 1504 1504 1503 1503 1502 1502 1501 1501 1500 1500 1500 1499 1498 1497 1496 1495 1494 1494 1493 1493 1492 1492 1491 1491 1491 1490
1496 1496 1496 1497 1497 1497 1497 1498 1498 1499 1499 1500 1500 1500 1500 1500 1501 1501 1501 1500 1499 1499 1499 1499 1498 1497 1497 1496 1495 1494 1493 1492 1492 1491 1490 1490 1490 1489 1489 1488 1487 1487 1486
1493 1493 1493 1494 1494 1494 1494 1495 1495 1496 1496 1496 1496 1497 1497 1497 1497 1497 1497 1497 1496 1495 1495 1495 1495 1494 1494 1493 1492 1491 1489 1489 1488 1487 1487 1486 1486 1486 1485 1485 1484 1484 1483
1490 1490 1490 1490 1490 1490 1491 1491 1492 1492 1492 1492 1493 1493 1493 1493 1493 1493 1493 1493 1492 1491 1491 1490 1490 1490 1489 1489 1488 1487 1486 1486 1485 1484 1483 1482 1482 1481 1481 1481 1480 1480 1480
1487 1487 1486 1486 1486 1486 1487 1487 1488 1488 1488 1488 1488 1488 1489 1489 1489 1489 1489 1489 1488 1488 1487 1486 1486 1486 1485 1485 1484 1483 1483 1482 1481 1480 1479 1478 1478 1477 1477 1477 1477 1476 1476
1484 1483 1482 1482 1482 1482 1482 1483 1483 1483 1484 1483 1484 1484 1484 1484 1484 1484 1484 1484 1484 1483 1483 1483 1482 1482 1481 1481 1480 1480 1479 1478 1477 1476 1475 1475 1474 1474 1473 1473 1473 1473 1472
1480 1479 1479 1478 1478 1478 1478 1478 1478 1478 1479 1479 1479 1479 1479 1479 1479 1479 1479 1479 1479 1479 1478 1478 1478 1478 1477 1476 1476 1475 1474 1474 1473 1472 1472 1471 1471 1470 1470 1470 1469 1468 1468
1477 1476 1475 1475 1474 1474 1474 1474 1474 1474 1474 1474 1474 1475 1475 1474 1474 1475 1474 1474 1474 1474 1474 1473 1473 1473 1472 1472 1471 1471 1470 1470 1469 1469 1468 1468 1467 1466 1466 1466 1466 1465 1464
1473 1472 1471 1471 1470 1470 1470 1470 1470 1470 1470 1470 1471 1471 1470 1471 1470 1470 1470 1470 1470 1470 1470 1468 1468 1468 1468 1468 1467 1467 1466 1466 1465 1465 1464 1464 1463 1463 1463 1462 1462 1461 1461
1470 1469 1468 1468 1467 1466 1466 1465 1465 1465 1466 1466 1466 1466 1466 1466 1466 1465 1465 1465 1465 1465 1465 1464 1464 1464 1464 1463 1463 1463 1462 1462 1461 1461 1460 1460 1460 1459 1459 1458 1458 1458 1457
1467 1466 1465 1464 1463 1463 1462 1461 1461 1461 1460 1460 1460 1461 1461 1461 1461 1461 1461 1461 1461 1460 1460 1460 1460 1460 1460 1459 1459 1458 1458 1458 1457 1457 1456 1456 1456 1455 1455 1454 1454 1454 1453
1463 1463 1462 1461 1460 1459 1459 1458 1457 1457 1457 1456 1456 1456 1457 1457 1457 1457 1457 1456 1456 1455 1456 1456 1455 1455 1455 1455 1455 1454 1454 1453 1453 1453 1452 1452 1452 1451 1451 1450 1450 1450 1449
1461 1460 1459 1458 1457 1456 1455 1454 1454 1453 1453 1453 1452 1452 1452 1452 1452 1452 1452 1452 1451 1451 1451 1451 1451 1451 1451 1451 1450 1450 1450 1449 1449 1448 1448 1448 1448 1447 1447 1446 1446 1445 1445
1457 1456 1456 1455 1454 1453 1452 1451 1451 1450 1450 1449 1449 1449 1449 1448 1448 1447 1447 1447 1447 1448 1447 1447 1447 1447 1447 1447 1446 1446 1446 1445 1445 1444 1444 1444 1443 1443 1443 1443 1442 1442 1441
1454 1453 1452 1451 1451 1450 1449 1448 1448 1447 1446 1446 1445 1445 1445 1444 1444 1444 1443 1443 1444 1444 1444 1444 1443 1443 1443 1443 1443 1442 1442 1441 1441 1441 1440 1440 1440 1439 1439 1438 1438 1438 1437
1451 1450 1449 1449 1448 1447 1446 1446 1445 1444 1443 1442 1442 1441 1440 1440 1440 1439 1439 1439 1440 1440 1439 1439 1439 1439 1439 1439 1439 1438 1438 1438 1437 1437 1437 1436 1435 1435 1435 1434 1434 1433 1433
1448 1447 1446 1445 1445 1444 1443 1443 1442 1441 1440 1439 1439 1438 1437 1437 1436 1436 1436 1436 1435 1435 1435 1435 1435 1435 1435 1435 1434 1434 1434 1434 1433 1433 1432 1432 1431 1431 1431 1430 1430 1430 1430
1445 1444 1443 1443 1442 1441 1440 1440 1439 1438 1437 1436 1436 1435 1435 1434 1433 1433 1432 1432 1431 1431 1431 1432 1432 1431 1431 1431 1430 1430 1429 1429 1429 1429 1428 1428 1428 1427 1427 1427 1426 1426 1426
1442 1441 1441 1440 1439 1438 1437 1436 1436 1435 1434 1434 1433 1432 1432 1431 1430 1429 1429 1428 1428 1428 1428 1428 1428 1427 1427 1426 1426 1425 1425 1425 1425 1424 1424 1424 1423 1423 1423 1423 1423 1423 1422